Weather History for Last Mountain, SK

Change the Weather History Date:

Saturday, August 24, 2013

  Actual Average Record
Temperature  
Mean Temperature 74 °F -  
Max Temperature 88 °F - - ()
Min Temperature 57 °F - - ()
Cooling Degree Days 8    
Growing Degree Days 24 (Base 50)    
Moisture  
Dew Point 59 °F    
Average Humidity 70    
Maximum Humidity 99    
Minimum Humidity 22    
Precipitation  
Precipitation 0.00 in - - ()
Sea Level Pressure  
Sea Level Pressure 29.68 in    
Wind  
Wind Speed 5 mph ()    
Max Wind Speed 12 mph    
Max Gust Speed 17 mph    
T = Trace of Precipitation, MM = Missing Value Source: Averaged Metar Reports

Daily Weather History Graph

Daily Weather History Graph

Search for Another Location

Airport:

Trip Planner

Search our weather history database for the weather conditions in past years. The results will help you decide how hot, cold, wet, or windy it might be!

Date:

Astronomy

Aug. 24, 2013 Rise Set
Actual Time 6:01 AM CST 8:03 PM CST
Civil Twilight 5:25 AM CST 8:39 PM CST
Nautical Twilight 4:40 AM CST 9:24 PM CST
Astronomical Twilight 3:49 AM CST 10:14 PM CST
Moon 9:21 PM CST 10:39 AM CST
Length of Visible Light 15h 13m
Length of Day
14h 02m
Waning Gibbous, 84% of the Moon is Illuminated
Aug 24
Waning Gibbous
Aug 28
Last Quarter
Sep 5
New
Sep 12
First Quarter
Sep 19
Full

Hourly Weather History & Observations

Time (CST) Temp. Heat Index Dew Point Humidity Pressure Visibility Wind Dir Wind Speed Gust Speed Precip Events Conditions
12:00 AM 67 °F - 65 °F 90% 29.68 in - East 3.5 mph - -  
12:00 AM 66.6 °F - 64.9 °F 95% 29.68 in - East 3.5 mph - N/A   Unknown
1:00 AM 66.0 °F - 64.2 °F 94% 29.65 in - Calm Calm - N/A   Unknown
2:00 AM 63.7 °F - 63.0 °F 97% 29.65 in - North 4.6 mph - N/A   Unknown
3:00 AM 63.3 °F - 62.4 °F 97% 29.65 in - ENE 5.8 mph - N/A   Unknown
4:00 AM 61.7 °F - 61.0 °F 97% 29.66 in - North 5.8 mph - N/A   Unknown
5:00 AM 62.2 °F - 61.5 °F 97% 29.65 in - East 4.6 mph - N/A   Unknown
6:00 AM 62 °F - 62 °F 98% 29.64 in - SE 3.5 mph - -  
6:00 AM 62.1 °F - 61.7 °F 99% 29.64 in - SE 4.6 mph - N/A   Unknown
7:00 AM 61.0 °F - 60.6 °F 99% 29.64 in - SW 4.6 mph - N/A   Unknown
8:00 AM 64.0 °F - 63.7 °F 99% 29.66 in - WSW 6.9 mph - N/A   Unknown
9:00 AM 67.5 °F - 66.6 °F 97% 29.68 in - South 6.9 mph - N/A   Unknown
10:00 AM 73.4 °F - 66.7 °F 80% 29.68 in - North 2.3 mph - N/A   Unknown
11:00 AM 77.4 °F - 65.7 °F 67% 29.68 in - WNW 6.9 mph - N/A   Unknown
12:00 PM 83 °F - 58 °F 32% 29.68 in - WNW 10.4 mph - -  
12:00 PM 82.8 °F 82.4 °F 57.7 °F 42% 29.68 in - WNW 10.4 mph - N/A   Unknown
1:00 PM 85.5 °F - 51.3 °F 31% 29.68 in - WNW 11.5 mph - N/A   Unknown
2:00 PM 86.2 °F 84.5 °F 54.7 °F 34% 29.68 in - WSW 9.2 mph - N/A   Unknown
3:00 PM 87.1 °F - 51.3 °F 29% 29.68 in - West 10.4 mph 17.3 mph N/A   Unknown
4:00 PM 88.0 °F - 51.6 °F 29% 29.67 in - West 10.4 mph - N/A   Unknown
5:00 PM 87.6 °F - 49.3 °F 27% 29.67 in - West 11.5 mph - N/A   Unknown
6:00 PM 86 °F - 53 °F 22% 29.68 in - West 5.8 mph - -  
6:00 PM 85.8 °F 84.0 °F 53.4 °F 33% 29.68 in - West 4.6 mph - N/A   Unknown
7:00 PM 79.9 °F - 62.6 °F 55% 29.69 in - WNW 4.6 mph - N/A   Unknown
8:00 PM 71.1 °F - 60.3 °F 69% 29.71 in - WNW 4.6 mph - N/A   Unknown
9:00 PM 62.2 °F - 57.7 °F 85% 29.73 in - West 8.1 mph - N/A   Unknown
10:00 PM 59.2 °F - 55.4 °F 87% 29.75 in - West 6.9 mph - N/A   Unknown
11:00 PM 57.9 °F - 53.6 °F 86% 29.76 in - West 9.2 mph - N/A   Unknown